{"data":{"norad_id":62782,"epoch":"2026-09-21T20:44:02.872032Z","epoch_age_seconds":53446,"freshness":"FRESH","line1":"1 62782U 25015AA  26264.86392213  .00006778  00000+0  22998-3 0  9992","line2":"2 62782  53.1579 129.3056 0001363  96.8250 263.2907 15.31701248 94268","mean_motion":15.31701248,"eccentricity":0.0001363,"inclination_deg":53.1579,"raan_deg":129.3056,"arg_perigee_deg":96.825,"mean_anomaly_deg":263.2907,"bstar":0.00022998,"rev_number":9426,"period_min":94.013111360996,"perigee_km":469.80277357773,"apogee_km":471.6697764325,"semimajor_km":6848.8732750051,"source":"CELESTRAK","updated_at":"2026-09-22T09:00:49.665674Z"}}